When you browse on this site, cookies collect data to enhance your experience and personalize the content and advertising you see.
Visit our Privacy Policy to learn more. By continuing to use the site, you agree to this use of cookies and data.
  • In Spain
  • List of Countries
  • For 7 days
  • Water Temperature
  • Satellite Maps
  • Weather Map
  • Weather Widgets
  • user-avatar
    Login

    Hourly Weather Vratsa

    Today, 18 January, Friday

    Time Temperature Precipitation Wind Pressure Humidity
    00:00 -1°C° 0 mm 2 mps 707 mmHg 72%
    01:00 -1°C° 0 mm 3 mps 707 mmHg 71%
    02:00 -1°C° 0 mm 3 mps 707 mmHg 70%
    03:00 -1°C° 0 mm 3 mps 707 mmHg 70%
    04:00 -1°C° 0 mm 3 mps 707 mmHg 69%
    05:00 -2°C° 0 mm 2 mps 707 mmHg 69%
    06:00 -2°C° 0 mm 2 mps 707 mmHg 68%
    07:00 -2°C° 0 mm 2 mps 707 mmHg 67%
    08:00 -2°C° 0 mm 2 mps 706 mmHg 66%
    09:00 -1°C° 0 mm 2 mps 707 mmHg 66%
    10:00 +2°C° 0 mm 2 mps 707 mmHg 67%
    11:00 +3°C° 0 mm 2 mps 707 mmHg 67%
    12:00 +4°C° 0 mm 2 mps 707 mmHg 68%
    13:00 +5°C° 0 mm 2 mps 707 mmHg 68%
    14:00 +5°C° 0 mm 2 mps 707 mmHg 69%
    15:00 +4°C° 0 mm 2 mps 707 mmHg 70%
    16:00 +3°C° 0 mm 2 mps 706 mmHg 71%
    17:00 +2°C° 0 mm 2 mps 706 mmHg 72%
    18:00 +2°C° 0 mm 2 mps 706 mmHg 72%
    19:00 +1°C° 0 mm 2 mps 706 mmHg 72%
    20:00 +1°C° 0 mm 2 mps 706 mmHg 72%
    21:00 +1°C° 0 mm 2 mps 707 mmHg 74%
    22:00 +1°C° 0 mm 2 mps 707 mmHg 75%
    23:00 +1°C° 0 mm 2 mps 707 mmHg 76%

    Tomorrow, 19 January, Saturday

    Time Temperature Precipitation Wind Pressure Humidity
    00:00 +2°C° 0.1 mm 1 mps 708 mmHg 78%
    01:00 +2°C° 0.1 mm 1 mps 708 mmHg 79%
    02:00 +2°C° 0.1 mm 1 mps 708 mmHg 80%
    03:00 +2°C° 0.1 mm 1 mps 708 mmHg 81%
    04:00 +2°C° 0.1 mm 1 mps 708 mmHg 81%
    05:00 +2°C° 0.1 mm 1 mps 708 mmHg 81%
    06:00 +2°C° 0.1 mm 1 mps 708 mmHg 82%
    07:00 +2°C° 0.1 mm 1 mps 709 mmHg 83%
    08:00 +1°C° 0.1 mm 1 mps 709 mmHg 84%
    09:00 +1°C° 0.2 mm 0 mps 709 mmHg 84%
    10:00 +2°C° 0.2 mm 0 mps 710 mmHg 83%
    11:00 +3°C° 0.2 mm 0 mps 710 mmHg 83%
    12:00 +4°C° 0.2 mm 1 mps 710 mmHg 84%
    13:00 +4°C° 0.2 mm 1 mps 710 mmHg 85%
    14:00 +4°C° 0.2 mm 1 mps 709 mmHg 86%
    15:00 +3°C° 0 mm 1 mps 709 mmHg 88%
    16:00 +2°C° 0 mm 1 mps 709 mmHg 91%
    17:00 +2°C° 0 mm 1 mps 709 mmHg 94%
    18:00 +1°C° 0 mm 1 mps 709 mmHg 95%
    19:00 +1°C° 0 mm 1 mps 710 mmHg 96%
    20:00 +1°C° 0 mm 1 mps 710 mmHg 97%
    21:00 +1°C° 0 mm 1 mps 710 mmHg 96%
    22:00 0°C° 0 mm 1 mps 710 mmHg 96%
    23:00 0°C° 0 mm 1 mps 710 mmHg 96%

    Day after tomorrow, 20 January, Sunday

    Time Temperature Precipitation Wind Pressure Humidity
    00:00 0°C° 0 mm 1 mps 709 mmHg 96%
    01:00 0°C° 0 mm 1 mps 709 mmHg 95%
    02:00 0°C° 0 mm 1 mps 709 mmHg 95%
    03:00 0°C° 0 mm 1 mps 709 mmHg 95%
    04:00 0°C° 0 mm 1 mps 708 mmHg 95%
    05:00 -1°C° 0 mm 1 mps 708 mmHg 95%
    06:00 0°C° 0 mm 1 mps 708 mmHg 95%
    07:00 0°C° 0 mm 1 mps 708 mmHg 95%
    08:00 0°C° 0 mm 1 mps 708 mmHg 95%
    09:00 +1°C° 0 mm 1 mps 708 mmHg 93%
    10:00 +2°C° 0 mm 1 mps 708 mmHg 91%
    11:00 +2°C° 0 mm 1 mps 708 mmHg 88%
    12:00 +3°C° 0.1 mm 1 mps 708 mmHg 87%
    13:00 +3°C° 0.1 mm 1 mps 707 mmHg 86%
    14:00 +4°C° 0.1 mm 1 mps 707 mmHg 85%
    15:00 +3°C° 0.2 mm 1 mps 706 mmHg 88%
    16:00 +3°C° 0.2 mm 1 mps 706 mmHg 91%
    17:00 +2°C° 0.2 mm 1 mps 706 mmHg 94%
    18:00 +2°C° 0.3 mm 1 mps 706 mmHg 95%
    19:00 +1°C° 0.3 mm 0 mps 706 mmHg 95%
    20:00 0°C° 0.3 mm 0 mps 706 mmHg 96%
    21:00 0°C° 0.1 mm 0 mps 707 mmHg 96%
    22:00 0°C° 0.1 mm 0 mps 707 mmHg 96%
    23:00 0°C° 0.1 mm 0 mps 707 mmHg 97%

    21 January, Monday

    Time Temperature Precipitation Wind Pressure Humidity
    00:00 0°C° 0 mm 0 mps 707 mmHg 96%
    01:00 +1°C° 0 mm 1 mps 707 mmHg 96%
    02:00 0°C° 0 mm 1 mps 707 mmHg 96%
    03:00 0°C° 0 mm 1 mps 707 mmHg 95%
    04:00 0°C° 0 mm 0 mps 707 mmHg 94%
    05:00 0°C° 0 mm 0 mps 707 mmHg 93%
    06:00 0°C° 0 mm 0 mps 707 mmHg 93%
    07:00 0°C° 0 mm 0 mps 708 mmHg 92%
    08:00 +1°C° 0 mm 1 mps 708 mmHg 91%
    09:00 +2°C° 0 mm 1 mps 709 mmHg 87%
    10:00 +2°C° 0 mm 1 mps 709 mmHg 84%
    11:00 +3°C° 0 mm 1 mps 709 mmHg 80%
    12:00 +4°C° 0 mm 1 mps 709 mmHg 78%
    13:00 +4°C° 0 mm 1 mps 709 mmHg 76%
    14:00 +3°C° 0 mm 2 mps 709 mmHg 74%
    15:00 +4°C° 0 mm 1 mps 709 mmHg 76%
    16:00 +3°C° 0 mm 1 mps 710 mmHg 79%
    17:00 +2°C° 0 mm 1 mps 710 mmHg 82%
    18:00 +2°C° 0 mm 1 mps 710 mmHg 84%
    19:00 +1°C° 0 mm 1 mps 711 mmHg 86%
    20:00 +1°C° 0 mm 1 mps 711 mmHg 88%
    21:00 0°C° 0 mm 1 mps 711 mmHg 88%
    22:00 0°C° 0 mm 1 mps 712 mmHg 89%
    23:00 0°C° 0 mm 1 mps 712 mmHg 90%

    22 January, Tuesday

    Time Temperature Precipitation Wind Pressure Humidity
    00:00 0°C° 0 mm 1 mps 712 mmHg 90%
    01:00 -1°C° 0 mm 1 mps 711 mmHg 90%
    02:00 -1°C° 0 mm 1 mps 711 mmHg 90%
    03:00 -1°C° 0 mm 1 mps 711 mmHg 91%
    04:00 -1°C° 0 mm 1 mps 711 mmHg 91%
    05:00 -1°C° 0 mm 1 mps 711 mmHg 92%
    06:00 -1°C° 0 mm 1 mps 711 mmHg 92%
    07:00 -2°C° 0 mm 1 mps 711 mmHg 93%
    08:00 -2°C° 0 mm 1 mps 710 mmHg 93%
    09:00 -1°C° 0 mm 1 mps 710 mmHg 89%
    10:00 0°C° 0 mm 1 mps 710 mmHg 86%
    11:00 0°C° 0 mm 1 mps 710 mmHg 83%
    12:00 -1°C° 0 mm 2 mps 709 mmHg 81%
    13:00 -1°C° 0 mm 2 mps 709 mmHg 80%
    14:00 +1°C° 0 mm 2 mps 708 mmHg 78%
    15:00 -1°C° 0.1 mm 2 mps 707 mmHg 81%
    16:00 -1°C° 0.1 mm 2 mps 707 mmHg 83%
    17:00 -1°C° 0.1 mm 2 mps 706 mmHg 86%
    18:00 0°C° 0.1 mm 1 mps 706 mmHg 88%
    19:00 0°C° 0.1 mm 1 mps 705 mmHg 90%
    20:00 -1°C° 0.1 mm 1 mps 705 mmHg 91%
    21:00 0°C° 0 mm 1 mps 704 mmHg 91%
    22:00 0°C° 0 mm 1 mps 704 mmHg 91%
    23:00 0°C° 0 mm 1 mps 703 mmHg 91%

    23 January, Wednesday

    Time Temperature Precipitation Wind Pressure Humidity
    00:00 0°C° 0 mm 1 mps 702 mmHg 91%
    01:00 0°C° 0 mm 1 mps 701 mmHg 91%
    02:00 0°C° 0 mm 1 mps 701 mmHg 91%
    03:00 0°C° 0 mm 1 mps 700 mmHg 91%
    04:00 0°C° 0 mm 1 mps 699 mmHg 91%
    05:00 0°C° 0 mm 1 mps 698 mmHg 92%
    06:00 0°C° 0 mm 1 mps 697 mmHg 92%
    07:00 0°C° 0 mm 1 mps 697 mmHg 92%
    08:00 0°C° 0 mm 1 mps 696 mmHg 92%
    09:00 +1°C° 0 mm 1 mps 696 mmHg 89%
    10:00 +2°C° 0 mm 1 mps 696 mmHg 86%
    11:00 +4°C° 0 mm 1 mps 695 mmHg 83%
    12:00 +4°C° 0 mm 1 mps 695 mmHg 82%
    13:00 +4°C° 0 mm 2 mps 694 mmHg 81%
    14:00 +5°C° 0 mm 2 mps 694 mmHg 80%
    15:00 +4°C° 0 mm 2 mps 693 mmHg 81%
    16:00 +4°C° 0 mm 1 mps 693 mmHg 83%
    17:00 +4°C° 0 mm 1 mps 692 mmHg 85%
    18:00 +3°C° 0 mm 1 mps 692 mmHg 84%
    19:00 +2°C° 0 mm 2 mps 692 mmHg 84%
    20:00 +2°C° 0 mm 2 mps 692 mmHg 84%
    21:00 +2°C° 0 mm 2 mps 692 mmHg 83%
    22:00 +2°C° 0 mm 2 mps 692 mmHg 82%
    23:00 +2°C° 0 mm 2 mps 692 mmHg 81%
    Show more